Regional Weather Roundup
Issued by NWS

Home | Current Version | Previous Version | Text Only | Print | Product List | Glossary On
Versions: 1 2 3 4 5 6 7 8 9 10 11 12 13 14 15 16 17 18 19 20 21 22 23 24 25 26 27 28 29 30 31 32 33 34 35 36 37 38 39 40 41 42 43 44 45 46 47 48 49 50
000
ASUS43 KMPX 262310
RWRMN
WEATHER ROUNDUP FOR MINNESOTA
NATIONAL WEATHER SERVICE TWIN CITIES/CHANHASSEN MN
600 PM CDT TUE AUG 26 2014


NOTE: "FAIR" INDICATES FEW OR NO CLOUDS BELOW 12,000 FEET WITH NO
SIGNIFICANT WEATHER AND/OR OBSTRUCTIONS TO VISIBILITY. N/A MEANS
CURRENT SKY AND/OR WEATHER CONDITIONS ARE NOT AVAILABLE.

MNZ060>063-068>070-270000-
   Twin Cities Metro

CITY           SKY/WX    TMP DP  RH WIND       PRES   REMARKS
TWIN CITIES    PTSUNNY   74  49  41 NW8       30.13F
ST PAUL        FAIR      73  52  47 S5        30.13F
CRYSTAL        FAIR      72  51  47 W8        30.13S
BLAINE         MOSUNNY   73  54  49 NW3       30.14F
LAKEVILLE      FAIR      70  54  56 CALM      30.15S
EDEN PRAIRIE   FAIR      73  52  47 SW5       30.13F
SOUTH ST PAUL  FAIR      74  48  40 CALM      30.13F
LAKE ELMO      FAIR      72  52  49 CALM      30.15F
$$
MNZ001>005-007-008-013>017-022>024-027-028-270000-
   Northwest Minnesota

CITY           SKY/WX    TMP DP  RH WIND       PRES   REMARKS
BEMIDJI        PTSUNNY   62  47  58 W8        30.16S
HALLOCK        FAIR      66  48  52 NE5       30.12F
ROSEAU         FAIR      61  50  67 NW8       30.15F
WARROAD        CLOUDY    57  50  77 W3        30.16F
THIEF RVR FALL PTSUNNY   63  48  59 CALM      30.15F
CROOKSTON      FAIR      64  52  63 CALM      30.14F
FOSSTON        FAIR      63  46  55 W7        30.17F
DETROIT LAKES  PTSUNNY   63  50  63 NW7       30.18S
MOORHEAD       CLOUDY    66  54  63 CALM      30.16S
PARK RAPIDS    FAIR      64  48  56 NW9       30.16F
MAHNOMEN       CLOUDY    63  51  64 NW5       30.16S
$$
MNZ006-009>011-018-025>026-270000-
   North Central Minnesota

CITY           SKY/WX    TMP DP  RH WIND       PRES   REMARKS
BAUDETTE       CLOUDY    58  47  66 VRB5      30.16S
FLAG ISLAND    FAIR      57  48  72 W12G20    30.13S
INTL FALLS     CLOUDY    57  48  72 W6        30.15S
WASKISH        CLOUDY    57  48  72 CALM      30.17S
BIG FORK       PTSUNNY   61  48  63 W3        30.17S
LONGVILLE      FAIR      63  50  63 NW5       30.16S
GRAND RAPIDS   CLOUDY    61  46  59 W6        30.16S
CRANE LAKE     CLOUDY    57  48  72 N3        30.14F
ORR            CLOUDY    61  46  59 NW6       30.11F
COOK           CLOUDY    61  48  63 W9        30.14F
WALKER         MOCLDY    63  48  58 NW5       30.16F
$$
MNZ012-019>021-037-270000-
   Northeast Minnesota

CITY           SKY/WX    TMP DP  RH WIND       PRES   REMARKS
DULUTH         PTSUNNY   66  49  54 NW8       30.13S
ELY            CLOUDY    61  46  59 W6        30.13R
HIBBING        PTSUNNY   62  47  57 NW12      30.15S
EVELETH        FAIR      61  46  59 W12       30.15S
DULUTH HARBOR  FAIR      70  52  52 NW13      30.12S
TWO HARBORS    FAIR      64  48  55 W5        30.11R
SILVER BAY     FAIR      63  52  67 W5        30.10R
GRAND MARAIS     N/A     64  49  57 VRB7      30.09R
G MARAIS ARPRT CLOUDY    57  45  62 NW10G20   30.12S
$$
MNZ029>031-032-039>041-046>048-054>057-064-270000-
   West Central Minnesota

CITY           SKY/WX    TMP DP  RH WIND       PRES   REMARKS
FERGUS FALLS   FAIR      66  50  55 W7        30.16S
WHEATON        FAIR      63  54  72 CALM      30.20R
MORRIS         LGT RAIN  64  54  68 CALM      30.18R
ALEXANDRIA     PTSUNNY   65  53  65 W7        30.19R
ELBOW LAKE     FAIR      64  53  67 CALM      30.17S
WADENA         PTSUNNY   63  52  67 NW3       30.16S
GLENWOOD       FAIR      64  54  68 W3        30.19R
APPLETON       LGT RAIN  66  54  63 CALM      30.18R
BENSON         FAIR      64  55  72 N3        30.18R
ORTONVILLE     LGT RAIN  64  55  72 CALM      30.19R
MADISON        FAIR      68  55  64 CALM      30.18S
WILLMAR        FAIR      68  54  60 NW8       30.18F
$$
MNZ033>034-036-042>043-049>051-058-059-270000-
   Central Minnesota

CITY           SKY/WX    TMP DP  RH WIND       PRES   REMARKS
ST CLOUD       FAIR      70  52  52 N6        30.15S
SAUK CENTRE    FAIR      64  52  64 W6        30.18S
PAYNESVILLE    HVY RAIN  64  52  64 NW3       30.17F
AITKIN         FAIR      68  54  60 CALM      30.15S
PINE RIVER     FAIR      63  52  67 CALM      30.19S
BRAINERD       FAIR      65  50  58 N9        30.16S
STAPLES        FAIR      64  52  63 NW6       30.16F
LONG PRAIRIE   FAIR      64  52  63 SW3       30.17S
LITTLE FALLS   FAIR      66  48  52 CALM      30.16F
LITCHFIELD     FAIR      70  55  60 CALM      30.16F
BUFFALO        FAIR      70  52  52 W5        30.16S
MAPLE LAKE     FAIR      69  57  65 CALM      30.16F
$$
MNZ037-044-045-052-053-270000-
   East Central Minnesota

CITY           SKY/WX    TMP DP  RH WIND       PRES   REMARKS
PRINCETON      FAIR      70  54  56 W6        30.16S
MORA           FAIR      64  54  68 CALM      30.17S
CAMBRIDGE      FAIR      72  55  56 NW5       30.13S
RUSH CITY      FAIR      67  53  61 N3        30.15S
MOOSE LAKE     FAIR      64  50  59 CALM      30.13S
HINCKLEY       FAIR      66  54  63 W5        30.15S
CLOQUET        FAIR      66  48  52 NW8       30.14S
MCGREGOR       FAIR      63  52  67 NW8       30.16S
$$
MNZ071>073-080-081-089-090-097-098-270000-
   Southwest Minnesota

CITY           SKY/WX    TMP DP  RH WIND       PRES   REMARKS
MONTEVIDEO     FAIR      66  55  68 N5        30.19R
GRANITE FALLS  FAIR      68  56  65 NW5       30.19R
CANBY          FAIR      68  54  62 NE5       30.18F
MARSHALL       FAIR      72  52  49 CALM      30.16S
REDWOOD FALLS  FAIR      73  53  49 CALM      30.15F
OLIVIA         FAIR      70  54  56 NW5       30.16S
PIPESTONE      FAIR      70  54  56 CALM      30.17S
WINDOM         FAIR      70  54  56 E3        30.17S
WORTHINGTON    FAIR      70  54  56 E5        30.18F
JACKSON        FAIR      70  52  52 CALM      30.17F
TRACY          CLOUDY    71  56  57 CALM      30.17S
SLAYTON        FAIR      69  53  56 CALM      30.18F
$$
MNZ065>067-074>077-082>085-091>093-270000-
   South Central Minnesota

CITY           SKY/WX    TMP DP  RH WIND       PRES   REMARKS
MANKATO        FAIR      70  52  52 CALM      30.16S
NEW ULM        FAIR      70  55  60 CALM      30.16S
ST JAMES       FAIR      72  54  53 CALM      30.17F
FAIRMONT       FAIR      70  54  56 CALM      30.16S
GLENCOE        FAIR      73  53  49 SW3       30.14F
FARIBAULT      FAIR      75  48  38 CALM      30.16S
OWATONNA       FAIR      70  52  52 NW5       30.16S
WASECA         FAIR      72  52  49 NW3       30.17F
ALBERT LEA     FAIR      70  55  60 N5        30.15S
$$
MNZ078>079-086>088-094>096-270000-
   Southeast Minnesota

CITY           SKY/WX    TMP DP  RH WIND       PRES   REMARKS
ROCHESTER      FAIR      70  54  56 N6        30.16F
RED WING       FAIR      73  50  43 W5        30.13S
STANTON        FAIR      72  51  48 SW3       30.14S
DODGE CENTER   FAIR      70  54  56 NW3       30.16F
WINONA         FAIR      72  54  53 CALM      30.15R
AUSTIN         FAIR      70  55  60 NW5       30.15F
PRESTON        FAIR      69  60  71 CALM      30.16S
$$
ABBREVIATIONS USED IN REMARKS
   TC - TEMPERATURES IN CELSIUS
  WCI - WIND CHILL INDEX
   HX - HEAT INDEX
  VSB - VISIBILITY
$$


USA.gov is the U.S. government's official web portal to all federal, state and local government web resources and services.